| time (UTC) | temp F | wind direction | speed MPH | gust MPH | rain 1hr in | rain 24hr in | rain mn in | humidity % | barometer mb |
| 20260506044532 | 77 | 160 | 2.0 | 6.0 | 0.00 | 0.00 | 0.00 | 88 | 1011.5 |
| 20260506043029 | 77 | 166 | 1.0 | 9.0 | 0.00 | 0.00 | 0.00 | 88 | 1011.4 |
| 20260506041528 | 77 | 124 | 1.0 | 7.0 | 0.00 | 0.00 | 0.00 | 87 | 1011.4 |
| 20260506040028 | 78 | 215 | 1.0 | 7.0 | 0.00 | 0.00 | 0.00 | 87 | 1011.5 |
| 20260506034528 | 78 | 137 | 1.0 | 11.0 | 0.00 | 0.00 | 0.00 | 86 | 1011.0 |
| 20260506033029 | 78 | 178 | 2.0 | 15.0 | 0.00 | 0.00 | 0.00 | 85 | 1011.0 |
| 20260506031530 | 78 | 0 | 2.0 | 9.0 | 0.00 | 0.00 | 0.00 | 85 | 1010.9 |
| 20260506030035 | 78 | 166 | 2.0 | 13.0 | 0.00 | 0.00 | 0.00 | 85 | 1010.8 |
| 20260506024541 | 78 | 143 | 4.0 | 9.0 | 0.00 | 0.00 | 0.00 | 85 | 1010.6 |
| 20260506023030 | 79 | 94 | 1.0 | 13.0 | 0.00 | 0.00 | 0.00 | 84 | 1010.3 |
| 20260506021530 | 79 | 151 | 2.0 | 7.0 | 0.00 | 0.00 | 0.00 | 84 | 1010.1 |
| 20260506020030 | 79 | 130 | 3.0 | 8.0 | 0.00 | 0.00 | 0.00 | 84 | 1010.1 |
| 20260506014535 | 79 | 151 | 3.0 | 10.0 | 0.00 | 0.00 | 0.00 | 83 | 1009.8 |
| 20260506013028 | 80 | 145 | 5.0 | 14.0 | 0.00 | 0.00 | 0.00 | 83 | 1009.4 |
| 20260506011531 | 80 | 23 | 2.0 | 8.0 | 0.00 | 0.00 | 0.00 | 82 | 1009.2 |
| 20260506010033 | 80 | 123 | 2.0 | 7.0 | 0.00 | 0.00 | 0.00 | 81 | 1009.2 |
| 20260506004530 | 80 | 165 | 2.0 | 9.0 | 0.00 | 0.00 | 0.00 | 80 | 1009.1 |
| 20260506003033 | 81 | 121 | 3.0 | 9.0 | 0.00 | 0.00 | 0.00 | 79 | 1008.9 |
| 20260506001532 | 81 | 123 | 3.0 | 12.0 | 0.00 | 0.00 | 0.00 | 79 | 1008.9 |
| 20260506000028 | 81 | 184 | 2.0 | 15.0 | 0.00 | 0.00 | 0.00 | 77 | 1008.7 |
| 20260505234534 | 82 | 200 | 7.0 | 14.0 | 0.00 | 0.00 | 0.00 | 77 | 1008.9 |
| 20260505233027 | 82 | 148 | 5.0 | 14.0 | 0.00 | 0.00 | 0.00 | 77 | 1008.9 |
| 20260505231529 | 82 | 189 | 3.0 | 16.0 | 0.00 | 0.00 | 0.00 | 78 | 1008.9 |
| 20260505230046 | 82 | 147 | 2.0 | 12.0 | 0.00 | 0.00 | 0.00 | 77 | 1008.9 |
| 20260505224529 | 82 | 142 | 3.0 | 13.0 | 0.00 | 0.00 | 0.00 | 77 | 1008.8 |
| 20260505223031 | 83 | 160 | 3.0 | 11.0 | 0.00 | 0.00 | 0.00 | 77 | 1008.7 |
| 20260505221529 | 83 | 174 | 3.0 | 11.0 | 0.00 | 0.00 | 0.00 | 76 | 1008.7 |
| 20260505220033 | 83 | 171 | 3.0 | 9.0 | 0.00 | 0.00 | 0.00 | 76 | 1009.0 |
| 20260505214529 | 84 | 155 | 2.0 | 9.0 | 0.00 | 0.00 | 0.00 | 76 | 1009.2 |
| 20260505213028 | 84 | 99 | 3.0 | 11.0 | 0.00 | 0.00 | 0.00 | 75 | 1009.1 |
| 20260505211530 | 84 | 132 | 2.0 | 12.0 | 0.00 | 0.00 | 0.00 | 76 | 1009.2 |
| 20260505210030 | 84 | 173 | 5.0 | 14.0 | 0.00 | 0.00 | 0.00 | 75 | 1009.3 |
| 20260505204527 | 84 | 176 | 5.0 | 18.0 | 0.00 | 0.00 | 0.00 | 75 | 1009.5 |
| 20260505203030 | 84 | 174 | 4.0 | 12.0 | 0.00 | 0.00 | 0.00 | 76 | 1009.7 |
| 20260505201529 | 84 | 140 | 3.0 | 11.0 | 0.00 | 0.00 | 0.00 | 76 | 1010.0 |
| 20260505200029 | 84 | 169 | 3.0 | 12.0 | 0.00 | 0.00 | 0.00 | 75 | 1010.2 |
| 20260505194529 | 84 | 261 | 3.0 | 9.0 | 0.00 | 0.00 | 0.00 | 74 | 1010.2 |
| 20260505193031 | 84 | 142 | 3.0 | 10.0 | 0.00 | 0.00 | 0.00 | 76 | 1010.3 |
| 20260505191529 | 83 | 164 | 3.0 | 11.0 | 0.00 | 0.00 | 0.00 | 77 | 1010.4 |
| 20260505190029 | 82 | 223 | 3.0 | 12.0 | 0.00 | 0.00 | 0.00 | 78 | 1010.8 |
| 20260505184530 | 82 | 203 | 6.0 | 11.0 | 0.00 | 0.00 | 0.00 | 78 | 1010.9 |
| 20260505183035 | 82 | 147 | 2.0 | 12.0 | 0.00 | 0.00 | 0.00 | 78 | 1010.9 |
| 20260505181529 | 82 | 179 | 2.0 | 11.0 | 0.00 | 0.00 | 0.00 | 79 | 1011.0 |
| 20260505180043 | 82 | 179 | 2.0 | 7.0 | 0.00 | 0.00 | 0.00 | 80 | 1011.3 |
| 20260505174532 | 81 | 184 | 2.0 | 10.0 | 0.00 | 0.00 | 0.00 | 80 | 1011.3 |
| 20260505173029 | 81 | 201 | 3.0 | 13.0 | 0.00 | 0.00 | 0.00 | 80 | 1011.5 |
| 20260505171531 | 80 | 144 | 2.0 | 11.0 | 0.00 | 0.00 | 0.00 | 80 | 1011.4 |
| 20260505170028 | 80 | 219 | 2.0 | 9.0 | 0.00 | 0.00 | 0.00 | 81 | 1011.7 |
| 20260505164528 | 80 | 180 | 3.0 | 10.0 | 0.00 | 0.00 | 0.00 | 81 | 1011.7 |
| 20260505163029 | 79 | 172 | 3.0 | 10.0 | 0.00 | 0.00 | 0.00 | 81 | 1011.6 |
| 20260505161530 | 79 | 171 | 3.0 | 15.0 | 0.00 | 0.00 | 0.00 | 81 | 1011.5 |
| 20260505153028 | 79 | 0 | 3.0 | 16.0 | 0.00 | 0.00 | 0.00 | 82 | 1011.4 |
| 20260505151528 | 78 | 0 | 1.0 | 9.0 | 0.00 | 0.00 | 0.00 | 82 | 1011.2 |
| 20260505124532 | 74 | 115 | 1.0 | 7.0 | 0.00 | 0.00 | 0.00 | 86 | 1010.8 |
| 20260505123035 | 74 | 157 | 0.0 | 7.0 | 0.00 | 0.00 | 0.00 | 87 | 1010.7 |
| 20260505121530 | 74 | 171 | 2.0 | 7.0 | 0.00 | 0.00 | 0.00 | 87 | 1010.4 |
| 20260505120030 | 74 | 119 | 1.0 | 9.0 | 0.00 | 0.00 | 0.00 | 87 | 1010.3 |
| 20260505114618 | 74 | 0 | 2.0 | 6.0 | 0.00 | 0.00 | 0.00 | 87 | 1010.7 |
| 20260505114529 | 74 | 0 | 2.0 | 6.0 | 0.00 | 0.00 | 0.00 | 87 | 1010.7 |
| 20260505113028 | 74 | 223 | 3.0 | 9.0 | 0.00 | 0.00 | 0.00 | 86 | 1010.5 |
| 20260505111528 | 74 | 171 | 1.0 | 8.0 | 0.00 | 0.00 | 0.00 | 86 | 1010.4 |
| 20260505101548 | 73 | 194 | 1.0 | 7.0 | 0.00 | 0.00 | 0.00 | 86 | 1010.5 |
| 20260505100053 | 73 | 0 | 1.0 | 7.0 | 0.00 | 0.00 | 0.00 | 86 | 1010.6 |
| 20260505094532 | 72 | 120 | 1.0 | 8.0 | 0.00 | 0.00 | 0.00 | 86 | 1010.7 |
| 20260505093028 | 73 | 0 | 2.0 | 8.0 | 0.00 | 0.00 | 0.00 | 86 | 1010.7 |
| 20260505091528 | 72 | 161 | 1.0 | 8.0 | 0.00 | 0.00 | 0.00 | 86 | 1010.9 |
| 20260505090029 | 72 | 155 | 1.0 | 5.0 | 0.00 | 0.00 | 0.00 | 86 | 1011.1 |
| 20260505084529 | 72 | 140 | 1.0 | 6.0 | 0.00 | 0.00 | 0.00 | 86 | 1011.0 |
| 20260505083028 | 72 | 163 | 1.0 | 7.0 | 0.00 | 0.00 | 0.00 | 85 | 1011.0 |
| 20260505081528 | 72 | 116 | 1.0 | 8.0 | 0.00 | 0.00 | 0.00 | 85 | 1011.4 |
| 20260505080028 | 72 | 190 | 1.0 | 8.0 | 0.00 | 0.00 | 0.00 | 85 | 1011.3 |
| 20260505074531 | 72 | 174 | 2.0 | 8.0 | 0.00 | 0.00 | 0.00 | 85 | 1011.5 |
| 20260505073037 | 72 | 0 | 2.0 | 7.0 | 0.00 | 0.00 | 0.00 | 85 | 1011.6 |
| 20260505071530 | 72 | 145 | 2.0 | 8.0 | 0.00 | 0.00 | 0.00 | 84 | 1011.8 |
| 20260505070030 | 72 | 134 | 2.0 | 9.0 | 0.00 | 0.00 | 0.00 | 84 | 1011.9 |
| 20260505064527 | 72 | 171 | 1.0 | 9.0 | 0.00 | 0.00 | 0.00 | 84 | 1012.1 |
| 20260505063030 | 72 | 119 | 2.0 | 10.0 | 0.00 | 0.00 | 0.00 | 83 | 1012.3 |
| 20260505061537 | 72 | 161 | 2.0 | 7.0 | 0.00 | 0.00 | 0.00 | 83 | 1012.7 |
| 20260505060030 | 72 | 0 | 1.0 | 9.0 | 0.00 | 0.00 | 0.00 | 83 | 1012.6 |